Tracking 18032 objects as of 24-March-2017
HD Live streaming from Space Station
objects crossing your sky now

METEOR 2-6 DEB

Track METEOR 2-6 DEB now!
10-day predictions


NORAD ID: 31406
Int'l Code: 1980-073H
Perigee: 792.4 km
Apogee: 858.8 km
Inclination: 81.2 °
Period: 101.3 minutes
Semi major axis: 7196 km
RCS: 0.0145 m2 (small)
Launch date: September 9, 1980
Source: Commonwealth of Independent States (former USSR) (CIS)
Launch site: PLESETSK MISSILE AND SPACE COMPLEX (PKMTR)

Note: This is SATELLITE DEBRIS
Your satellite tracking list
Your tracking list is empty





NASA's NSSDC Master Catalog

Two Line Element Set (TLE):
1 31406U 80073H   17081.81836433 +.00000497 +00000-0 +21696-3 0  9992
2 31406 081.2217 115.2695 0046130 239.8508 119.8095 14.22032210153318
Source of the keplerian elements: AFSPC